Location: Hermaringen
(48.5952°N, 10.2585°E)
Time: 04:51:24
(UTC+00:00)

Transit 2A - Pass Details

Date: 18 February 2026
Orbit: 590 x 954 km, 66.7° (Epoch: 14 March)

Event Time Altitude Azimuth Distance (km) Brightness Sun altitude
Rises 18:27:56 0° 323° (NW) 3,622 10.1 -17.6°
Reaches altitude 10° 18:31:00 10° 336° (NNW) 2,648 9.1 -18.1°
Maximum altitude 18:36:09 27° 32° (NNE) 1,669 7.5 -19.0°
Enters shadow 18:37:30 25° 54° (NE) 1,733 7.4 -19.2°
